Date String (YYYY-MM-DD hh:mm:ss) UTC,Instrument flags,Ambient pressure (hPa),Sample flow (lpm),Bypass flow (lpm),Sample temperature (°C),Ambient temperature (°C),ASC tube jacket temperature (°C),LED temperature (°C),Box temperature (°C),Sample RH (%),Span deviation,Mass concentration (μg/m³),Mass concentration (μg/m³),Mass concentration (μg/m³)
DateTimeUTC,F1_M11,P_M11,Q1_M11,Q2_M11,T1_M11,T2_M11,T3_M11,T4_M11,T5_M11,U1_M11,ZSPAN_M11,X0_M11,X2_M11,X1_M11
2022-07-15 00:00:00,,0830.1,5.01,0.00,29.2,27.6,00.0,37.9,31.1,26.8,0000.0,0008.40,0003.88,0003.31
2022-07-15 00:01:00,,0830.2,4.99,0.00,29.2,27.8,00.0,38.0,31.1,26.9,0000.0,0007.87,0003.90,0003.32
2022-07-15 00:02:00,,0830.3,5.01,0.00,29.3,27.9,00.0,38.0,31.2,27.4,0000.0,0007.75,0003.92,0003.34
2022-07-15 00:03:00,,0830.3,5.00,0.00,29.3,28.1,00.0,38.0,31.3,27.6,0000.0,0007.94,0003.96,0003.35
2022-07-15 00:04:00,,0830.4,5.00,0.00,29.4,28.3,00.0,38.0,31.3,27.6,0000.0,0008.39,0003.99,0003.37
2022-07-15 00:05:00,,0830.4,5.01,0.00,29.4,27.9,00.0,38.0,31.3,27.7,0000.0,0008.37,0003.93,0003.37
2022-07-15 00:06:00,,0830.4,5.00,0.00,29.3,27.2,00.0,37.9,31.2,27.1,0000.0,0008.65,0003.90,0003.37
2022-07-15 00:07:00,,0830.4,5.00,0.00,29.3,26.9,00.0,37.9,31.1,26.6,0000.0,0008.99,0003.89,0003.37
2022-07-15 00:08:00,,0830.5,5.00,0.00,29.2,27.0,00.0,37.9,31.0,26.9,0000.0,0008.87,0003.84,0003.36
2022-07-15 00:09:00,,0830.6,5.00,0.00,29.2,27.1,00.0,37.9,30.9,27.0,0000.0,0008.68,0003.79,0003.35
2022-07-15 00:10:00,,0830.6,5.00,0.00,29.2,27.3,00.0,37.9,31.0,26.8,0000.0,0008.70,0003.82,0003.34
2022-07-15 00:11:00,,0830.6,5.01,0.00,29.2,27.5,00.0,37.9,31.0,26.7,0000.0,0008.66,0003.82,0003.33
2022-07-15 00:12:00,,0830.7,4.99,0.00,29.2,27.7,00.0,37.9,31.1,26.9,0000.0,0009.70,0003.82,0003.32
2022-07-15 00:13:00,,0830.8,4.99,0.00,29.3,27.9,00.0,38.0,31.2,28.5,0000.0,0010.22,0003.83,0003.29
2022-07-15 00:14:00,,0830.7,5.02,0.00,29.3,28.1,00.0,38.0,31.3,29.2,0000.0,0010.18,0003.80,0003.29
2022-07-15 00:15:00,,0830.7,5.00,0.00,29.3,28.2,00.0,38.0,31.3,28.9,0000.0,0009.88,0003.82,0003.29
2022-07-15 00:16:00,,0830.7,4.99,0.00,29.4,28.3,00.0,38.0,31.4,28.8,0000.0,0010.16,0003.87,0003.29
2022-07-15 00:17:00,,0830.7,5.01,0.00,29.4,27.7,00.0,38.0,31.3,28.3,0000.0,0010.09,0003.89,0003.29
2022-07-15 00:18:00,,0830.7,5.00,0.00,29.3,27.0,00.0,37.9,31.2,27.5,0000.0,0010.05,0003.90,0003.30
2022-07-15 00:19:00,,0830.8,5.01,0.00,29.3,26.8,00.0,37.9,31.1,26.7,0000.0,0010.22,0003.92,0003.31
2022-07-15 00:20:00,,0830.7,5.00,0.00,29.2,26.9,00.0,37.9,31.0,27.4,0000.0,0010.87,0003.94,0003.31
2022-07-15 00:21:00,,0830.9,5.00,0.00,29.2,27.1,00.0,37.9,30.9,27.5,0000.0,0011.04,0003.95,0003.31
2022-07-15 00:22:00,,0830.9,4.99,0.00,29.2,27.3,00.0,37.9,31.0,27.5,0000.0,0011.28,0003.96,0003.31
2022-07-15 00:23:00,,0830.9,5.00,0.00,29.2,27.5,00.0,37.9,31.0,28.2,0000.0,0010.17,0003.95,0003.31
2022-07-15 00:24:00,,0830.9,4.99,0.00,29.2,27.7,00.0,37.9,31.1,28.7,0000.0,0009.52,0003.94,0003.33
2022-07-15 00:25:00,,0830.9,5.00,0.00,29.2,27.9,00.0,37.9,31.2,28.4,0000.0,0009.32,0003.92,0003.35
2022-07-15 00:26:00,,0830.9,5.01,0.00,29.3,28.0,00.0,38.0,31.2,28.8,0000.0,0009.27,0003.93,0003.37
2022-07-15 00:27:00,,0830.9,5.00,0.00,29.3,28.2,00.0,38.0,31.3,29.1,0000.0,0009.13,0003.92,0003.38
2022-07-15 00:28:00,,0830.9,5.00,0.00,29.4,28.3,00.0,38.0,31.3,29.9,0000.0,0008.66,0003.93,0003.39
2022-07-15 00:29:00,,0830.8,4.99,0.00,29.4,27.9,00.0,38.0,31.3,29.8,0000.0,0008.62,0003.98,0003.42
2022-07-15 00:30:00,,0830.8,5.02,0.00,29.3,27.2,00.0,37.9,31.2,31.0,0000.0,0008.54,0004.01,0003.45
2022-07-15 00:31:00,,0830.8,4.99,0.00,29.3,26.9,00.0,37.9,31.1,31.1,0000.0,0008.00,0004.08,0003.48
2022-07-15 00:32:00,,0830.8,5.00,0.00,29.2,26.9,00.0,37.9,31.0,30.3,0000.0,0007.91,0004.09,0003.50
2022-07-15 00:33:00,,0830.8,5.00,0.00,29.2,27.0,00.0,37.9,31.0,30.0,0000.0,0007.76,0004.11,0003.51
2022-07-15 00:34:00,,0830.8,5.00,0.00,29.2,27.2,00.0,37.9,31.0,30.3,0000.0,0007.97,0004.15,0003.53
2022-07-15 00:35:00,,0830.8,5.00,0.00,29.2,27.4,00.0,37.9,31.0,30.6,0000.0,0008.28,0004.16,0003.53
2022-07-15 00:36:00,,0830.7,5.00,0.00,29.2,27.6,00.0,37.9,31.1,29.6,0000.0,0008.74,0004.18,0003.53
2022-07-15 00:37:00,,0830.7,5.00,0.00,29.2,27.8,00.0,37.9,31.2,30.5,0000.0,0008.70,0004.17,0003.52
2022-07-15 00:38:00,,0830.8,5.00,0.00,29.3,28.0,00.0,38.0,31.2,31.3,0000.0,0008.64,0004.18,0003.52
2022-07-15 00:39:00,,0830.8,5.00,0.00,29.3,28.2,00.0,38.0,31.3,29.9,0000.0,0008.65,0004.18,0003.52
2022-07-15 00:40:00,,0830.8,5.00,0.00,29.3,28.2,00.0,38.0,31.3,29.9,0000.0,0008.84,0004.15,0003.51
2022-07-15 00:41:00,,0830.7,5.00,0.00,29.3,27.7,00.0,37.9,31.3,29.0,0000.0,0009.02,0004.16,0003.50
2022-07-15 00:42:00,,0830.7,5.00,0.00,29.3,27.1,00.0,37.9,31.1,30.3,0000.0,0009.03,0004.15,0003.50
2022-07-15 00:43:00,,0830.7,5.01,0.00,29.2,26.9,00.0,37.9,31.0,30.0,0000.0,0009.41,0004.16,0003.50
2022-07-15 00:44:00,,0830.7,5.00,0.00,29.2,27.0,00.0,37.9,30.9,29.3,0000.0,0009.45,0004.16,0003.51
2022-07-15 00:45:00,,0830.7,5.00,0.00,29.1,27.1,00.0,37.9,30.9,28.8,0000.0,0009.16,0004.15,0003.52
2022-07-15 00:46:00,,0830.7,5.01,0.00,29.1,27.3,00.0,37.9,31.0,28.4,0000.0,0008.90,0004.12,0003.51
2022-07-15 00:47:00,,0830.6,4.99,0.00,29.2,27.5,00.0,37.9,31.0,28.2,0000.0,0008.45,0004.10,0003.50
2022-07-15 00:48:00,,0830.6,5.02,0.00,29.2,27.7,00.0,37.9,31.1,28.1,0000.0,0008.46,0004.10,0003.50
2022-07-15 00:49:00,,0830.7,5.00,0.00,29.2,27.9,00.0,37.9,31.2,27.6,0000.0,0008.47,0004.10,0003.50
2022-07-15 00:50:00,,0830.7,5.00,0.00,29.3,28.0,00.0,38.0,31.2,26.9,0000.0,0008.66,0004.11,0003.49
2022-07-15 00:51:00,,0830.8,5.00,0.00,29.3,28.2,00.0,38.0,31.3,26.4,0000.0,0008.45,0004.11,0003.49
2022-07-15 00:52:00,,0830.8,5.00,0.00,29.3,28.3,00.0,38.0,31.4,26.2,0000.0,0008.48,0004.13,0003.49
2022-07-15 00:53:00,,0830.7,4.99,0.00,29.4,28.0,00.0,38.0,31.3,27.1,0000.0,0008.48,0004.12,0003.48
2022-07-15 00:54:00,,0830.7,5.00,0.00,29.3,27.2,00.0,37.9,31.2,27.8,0000.0,0008.07,0004.08,0003.47
2022-07-15 00:55:00,,0830.8,4.99,0.00,29.3,26.9,00.0,37.9,31.1,27.5,0000.0,0008.13,0004.05,0003.45
2022-07-15 00:56:00,,0830.7,4.99,0.00,29.2,27.0,00.0,37.9,31.0,27.8,0000.0,0008.58,0004.01,0003.42
2022-07-15 00:57:00,,0830.7,5.01,0.00,29.2,27.1,00.0,37.9,31.0,27.8,0000.0,0008.57,0004.00,0003.40
2022-07-15 00:58:00,,0830.8,5.01,0.00,29.2,27.3,00.0,37.9,31.0,28.5,0000.0,0008.87,0004.04,0003.39
2022-07-15 00:59:00,,0830.8,4.99,0.00,29.2,27.5,00.0,37.9,31.0,28.2,0000.0,0009.35,0004.05,0003.37
